Regional Weather Roundup
Issued by NWS

Home | Current Version | Previous Version | Text Only | Print | Product List | Glossary On
Versions: 1 2 3 4 5 6 7 8 9 10 11 12 13 14 15 16 17 18 19 20 21 22 23 24 25 26 27 28 29 30 31 32 33 34 35 36 37 38 39 40 41 42 43 44 45 46 47 48 49 50
000
ASUS44 KLIX 030711
RWRLA
LOUISIANA WEATHER ROUNDUP
NATIONAL WEATHER SERVICE NEW ORLEANS LA
200 AM CDT FRI JUL 03 2015

NOTE: "FAIR" INDICATES FEW OR NO CLOUDS BELOW 12,000 FEET WITH NO
      SIGNIFICANT WEATHER AND/OR OBSTRUCTIONS TO VISIBILITY.
      SKY/WX - SKY CONDITION AND SIGNIFICANT WEATHER.
      TMP - AIR TEMPERATURE.    DP   - DEWPOINT TEMPERATURE.
      RH  - RELATIVE HUMIDITY.  PRES - PRESSURE.
      HX  - HEAT INDEX.         WCI  - WIND CHILL INDEX.

*  THESE STATIONS ARE NOT NWS OR FAA STATIONS AND ARE NOT UNDER
   NWS QUALITY CONTROL.

LAZ040-048-061>063-065-066-069-030800-
SOUTHEAST LOUISIANA

CITY           SKY/WX    TMP DP  RH WIND       PRES   REMARKS
N.O. AUDUBON     N/A     81  78  91 MISG        N/A
N.O. INTL ARPT CLOUDY    80  74  81 S6        30.04S
N.O. LAKEFRONT CLOUDY    85  75  72 SW7       30.04F
N.O. DOWNTOWN* FAIR      84  73  70 S6        30.05S
RESERVE*       PTSUNNY   80  75  85 W6        30.04S
SLIDELL        CLOUDY    81  77  88 CALM      30.04S
BATON ROUGE    CLOUDY    79  75  87 S5        30.04S
BOOTHVILLE     PTCLDY    83  77  82 S6        30.06S
BELLE CHASSE   CLOUDY    76  74  93 S3        30.04F
BOGALUSA*        N/A     78  73  87 CALM      30.06F
GALLIANO*      PTSUNNY   80  77  90 S3        30.05F
NEW ROADS*     FAIR     N/A N/A N/A CALM      30.04F
GONZALES*      FAIR      76  76 100 CALM      30.03F
HAMMOND*       CLOUDY    77  73  88 CALM      30.06S
HOUMA*         CLOUDY    78  76  95 CALM      30.05R
PORT FOURCHON* SUNNY     84  77  79 S8        30.06S

$$

LAZ041-044-053-054-030800-
SOUTHWEST LOUISIANA

CITY           SKY/WX    TMP DP  RH WIND       PRES   REMARKS
LAKE CHARLES   PTCLDY    77  75  93 CALM      30.02S
LAFAYETTE      MOCLDY    77  75  93 CALM      30.04S
PATTERSON      MOCLDY    77  73  88 S5        30.05F
SALT POINT       N/A     82  77  84 CALM      30.02F
NEW IBERIA     NOT AVBL
CHENAULT AIRPK PTCLDY    76  75  97 CALM      30.03S

$$

LAZ027-028-030800-
CENTRAL LOUISIANA

CITY           SKY/WX    TMP DP  RH WIND       PRES   REMARKS
FORT POLK      PTCLDY    76  74  93 S5        30.02S
ALEXANDRIA INT MOCLDY    76  74  93 S5        30.01S
ALEXANDRIA     MOCLDY    77  74  90 S6        30.03F

$$

LAZ001-002-030800-
NORTHWEST LOUISIANA

CITY           SKY/WX    TMP DP  RH WIND       PRES   REMARKS
SHREVEPORT     CLOUDY    78  72  81 S9        29.97F
BARKSDALE AFB  MOCLDY    79  72  79 S10       29.97F
DTN SHREVEPORT MOCLDY    79  71  76 S13       29.97F

$$

LAZ014-016-030800-
NORTHEAST LOUISIANA

CITY           SKY/WX    TMP DP  RH WIND       PRES   REMARKS
MONROE         MOCLDY    78  73  84 SW10      29.99F
TALLULAH       CLOUDY    79  73  82 SW8       29.99F

$$




USA.gov is the U.S. government's official web portal to all federal, state and local government web resources and services.